Home   Weather   Flint   Past weeks

Flag for USA Past Weather in Flint, Michigan, USA — Yesterday and Last 2 Weeks

Now
70 °F

Sunny.


Feels Like: 75 °F
Forecast: 57 / 73 °F
Wind: 6 mph from West

Location: Bishop International Airport

Current Time: Jun 23, 2017 at 9:46:10 pm

Latest Report: Jun 23, 2017 at 8:53 pm


Visibility: 10 mi

Pressure: 29.65 "Hg

Humidity: 64%

Dew Point: 57 °F

Location of FlintLocation

Past Weather in Flint — Graph

°F

Flint Temperature Yesterday

Maximum temperature yesterday: 90 °F (at 2:53 pm)
Minimum temperature yesterday: 56 °F (at 1:53 am)
Average temperature yesterday: 74 °F

High & Low Weather Summary for the Past Weeks

 TemperatureHumidityPressure
High91 °F (Jun 12, 2:53 pm)100% (Jun 10, 1:32 am)30.02 "Hg (Jun 10, 1:32 am)
Low48 °F (Jun 21, 5:07 am)30% (Jun 10, 6:53 pm)29.53 "Hg (Jun 18, 5:53 am)
Average72 °F69%29.82 "Hg
* Reported Jun 8 7:53 pm — Jun 23 7:53 pm, Flint. Weather by CustomWeather, © 2017

Note: Actual official high and low records may vary slightly from our data, if they occured in-between our weather recording intervals... More about our weather records

Advertising

Flint Weather History for the Previous 24 Hours

Scroll right to see more
 ConditionsComfort  
Time TempWeatherWind HumidityBarometerVisibility
7:53 pm
Fri, Jun 23
75 °FSunny.13 mph54%29.64 "Hg10 mi
6:53 pm75 °FPassing clouds.12 mph60%29.62 "Hg10 mi
5:53 pm77 °FSunny.10 mph54%29.61 "Hg10 mi
4:53 pm76 °FPartly sunny.13 mph64%29.61 "Hg10 mi
3:53 pm77 °FPassing clouds.13 mph64%29.60 "Hg10 mi
2:53 pm73 °FMore clouds than sun.7 mph79%29.61 "Hg10 mi
2:34 pm71 °FOvercast.12 mph87%29.63 "Hg8 mi
1:53 pm72 °FCloudy.12 mph81%29.61 "Hg10 mi
1:33 pm72 °FOvercast.15 mph81%29.61 "Hg10 mi
12:53 pm75 °FBroken clouds.10 mph76%29.58 "Hg10 mi
12:28 pm74 °FPartly sunny.8 mph82%29.58 "Hg10 mi
11:53 am72 °FPartly sunny.5 mph84%29.56 "Hg10 mi
10:53 am69 °FSunny.6 mph93%29.59 "Hg10 mi
9:53 am67 °FMore clouds than sun.12 mph97%29.58 "Hg7 mi
9:06 am67 °FFog.No wind93%29.65 "Hg2 mi
8:07 am66 °FFog.9 mph93%29.63 "Hg4 mi
7:32 am66 °FFog.16 mph93%29.64 "Hg1 mi
6:58 am67 °FFog.No wind97%29.63 "Hg1 mi
5:53 am67 °FOvercast.9 mph93%29.63 "Hg9 mi
4:53 am70 °FMostly cloudy.3 mph90%29.64 "Hg10 mi
4:01 am72 °FMostly cloudy.9 mph87%29.67 "Hg10 mi
2:53 am72 °FMostly cloudy.10 mph87%29.67 "Hg10 mi
1:53 am73 °FMostly cloudy.9 mph88%29.70 "Hg10 mi
12:53 am70 °FMostly cloudy.5 mph93%29.71 "Hg10 mi
12:03 am69 °FMostly cloudy.9 mph87%29.75 "Hg10 mi
11:53 pm
Thu, Jun 22
69 °FMostly cloudy.12 mph90%29.74 "Hg10 mi
11:19 pm70 °FThundershowers. Partly cloudy.9 mph90%29.77 "Hg8 mi
11:04 pm72 °FThunderstorms. Passing clouds.15 mph87%29.78 "Hg9 mi
10:53 pm73 °FThundershowers. Passing clouds.12 mph88%29.77 "Hg10 mi
9:53 pm74 °FMostly cloudy.9 mph82%29.76 "Hg10 mi
9:37 pm75 °FThundershowers. Mostly cloudy.9 mph82%29.78 "Hg10 mi
9:10 pm76 °FThunderstorms. Mostly cloudy.6 mph82%29.77 "Hg4 mi
Weather by CustomWeather, © 2017

See weather overviewHow to use our weather pages